| time (UTC) | temp F | wind direction | speed knots | gust knots | rain 1hr in | rain 24hr in | rain mn in | humidity % | barometer mb |
| 20260507022928 | 51 | 252 | 3.5 | 13.0 | 0.01 | 0.49 | 0.28 | 86 | 1023.3 |
| 20260507022431 | 51 | 210 | 3.5 | 10.4 | 0.01 | 0.49 | 0.28 | 86 | 1023.3 |
| 20260507022424 | 51 | 261 | 3.5 | 13.0 | 0.01 | 0.49 | 0.28 | 87 | 1023.3 |
| 20260507021923 | 51 | 248 | 3.5 | 10.4 | 0.01 | 0.49 | 0.28 | 87 | 1023.2 |
| 20260507020932 | 51 | 239 | 2.6 | 13.0 | 0.00 | 0.48 | 0.27 | 87 | 1023.2 |
| 20260507020926 | 52 | 241 | 3.5 | 13.0 | 0.01 | 0.49 | 0.28 | 86 | 1023.3 |
| 20260507015923 | 51 | 191 | 2.6 | 10.4 | 0.00 | 0.48 | 0.27 | 89 | 1023.2 |
| 20260507015426 | 50 | 251 | 2.6 | 8.7 | 0.01 | 0.48 | 0.27 | 88 | 1023.2 |
| 20260507014924 | 50 | 237 | 2.6 | 7.8 | 0.01 | 0.48 | 0.27 | 89 | 1023.2 |
| 20260507014424 | 50 | 180 | 1.7 | 7.8 | 0.01 | 0.48 | 0.27 | 90 | 1023.1 |
| 20260507013925 | 49 | 234 | 2.6 | 8.7 | 0.01 | 0.48 | 0.27 | 90 | 1023.1 |
| 20260507013424 | 49 | 249 | 1.7 | 8.7 | 0.02 | 0.48 | 0.27 | 90 | 1023.2 |
| 20260507012926 | 48 | 277 | 1.7 | 7.0 | 0.02 | 0.48 | 0.27 | 91 | 1023.2 |
| 20260507012432 | 47 | 180 | 0.9 | 7.8 | 0.02 | 0.48 | 0.27 | 90 | 1023.3 |
| 20260507012425 | 48 | 300 | 0.9 | 7.0 | 0.02 | 0.48 | 0.27 | 91 | 1023.2 |
| 20260507011425 | 47 | 226 | 0.0 | 7.8 | 0.02 | 0.48 | 0.27 | 91 | 1023.4 |
| 20260507010923 | 47 | 330 | 0.9 | 7.0 | 0.04 | 0.48 | 0.27 | 90 | 1023.4 |
| 20260507010422 | 47 | 249 | 0.9 | 5.2 | 0.04 | 0.48 | 0.27 | 90 | 1023.3 |
| 20260507005921 | 47 | 262 | 1.7 | 8.7 | 0.04 | 0.48 | 0.27 | 90 | 1023.3 |
| 20260507005421 | 47 | 218 | 1.7 | 8.7 | 0.03 | 0.47 | 0.26 | 90 | 1023.3 |
| 20260507004930 | 48 | 185 | 1.7 | 11.3 | 0.03 | 0.47 | 0.26 | 90 | 1023.1 |
| 20260507004924 | 48 | 270 | 1.7 | 8.7 | 0.03 | 0.47 | 0.26 | 91 | 1023.2 |
| 20260507003922 | 47 | 239 | 1.7 | 11.3 | 0.05 | 0.47 | 0.26 | 90 | 1023.0 |
| 20260507003423 | 47 | 251 | 2.6 | 11.3 | 0.05 | 0.46 | 0.25 | 90 | 1023.2 |
| 20260507002921 | 47 | 242 | 3.5 | 12.2 | 0.05 | 0.46 | 0.25 | 90 | 1023.2 |
| 20260507002422 | 47 | 216 | 3.5 | 12.2 | 0.05 | 0.46 | 0.25 | 90 | 1023.3 |
| 20260507001920 | 47 | 258 | 2.6 | 12.2 | 0.05 | 0.46 | 0.25 | 90 | 1023.2 |
| 20260507001427 | 47 | 164 | 1.7 | 7.8 | 0.03 | 0.44 | 0.23 | 90 | 1022.9 |
| 20260507001421 | 47 | 229 | 2.6 | 9.6 | 0.04 | 0.46 | 0.24 | 89 | 1023.4 |
| 20260507000919 | 47 | 202 | 1.7 | 9.6 | 0.03 | 0.44 | 0.23 | 90 | 1023.3 |
| 20260507000546 | 47 | 235 | 2.6 | 8.7 | 0.03 | 0.44 | 0.23 | 90 | 1022.8 |
| 20260506235420 | 47 | 254 | 2.6 | 11.3 | 0.03 | 0.44 | 0.23 | 90 | 1022.8 |
| 20260506234920 | 47 | 175 | 2.6 | 11.3 | 0.05 | 0.44 | 0.23 | 89 | 1022.9 |
| 20260506234421 | 46 | 273 | 2.6 | 9.6 | 0.06 | 0.44 | 0.23 | 89 | 1023.1 |
| 20260506233923 | 47 | 237 | 0.9 | 7.0 | 0.04 | 0.42 | 0.20 | 89 | 1023.2 |
| 20260506233917 | 47 | 276 | 1.7 | 9.6 | 0.05 | 0.43 | 0.22 | 89 | 1023.4 |
| 20260506232915 | 47 | 269 | 0.9 | 7.0 | 0.05 | 0.42 | 0.20 | 89 | 1023.0 |
| 20260506232416 | 47 | 272 | 0.9 | 7.0 | 0.05 | 0.42 | 0.20 | 90 | 1022.8 |
| 20260506231913 | 47 | 235 | 0.9 | 7.0 | 0.05 | 0.42 | 0.20 | 90 | 1022.6 |
| 20260506231415 | 47 | 235 | 1.7 | 8.7 | 0.05 | 0.42 | 0.20 | 90 | 1022.5 |
| 20260506230915 | 46 | 241 | 0.9 | 8.7 | 0.04 | 0.41 | 0.20 | 90 | 1022.6 |
| 20260506230419 | 46 | 348 | 3.5 | 11.3 | 0.04 | 0.41 | 0.20 | 88 | 1022.4 |
| 20260506230415 | 46 | 258 | 1.7 | 9.6 | 0.04 | 0.41 | 0.20 | 89 | 1022.6 |
| 20260506225415 | 46 | 226 | 3.5 | 13.0 | 0.04 | 0.41 | 0.20 | 88 | 1023.0 |
| 20260506224914 | 47 | 223 | 3.5 | 13.0 | 0.02 | 0.39 | 0.18 | 88 | 1023.2 |
| 20260506224415 | 47 | 260 | 1.7 | 12.2 | 0.01 | 0.38 | 0.17 | 88 | 1023.1 |
| 20260506223917 | 47 | 307 | 1.7 | 11.3 | 0.01 | 0.37 | 0.17 | 88 | 1022.3 |
| 20260506223913 | 47 | 276 | 1.7 | 11.3 | 0.02 | 0.38 | 0.17 | 88 | 1022.8 |
| 20260506222915 | 47 | 258 | 1.7 | 9.6 | 0.01 | 0.37 | 0.16 | 88 | 1021.8 |
| 20260506222421 | 46 | 260 | 1.7 | 8.7 | 0.02 | 0.37 | 0.16 | 89 | 1021.6 |
| 20260506222415 | 46 | 253 | 0.9 | 7.0 | 0.01 | 0.37 | 0.16 | 89 | 1021.5 |
| 20260506221415 | 46 | 266 | 1.7 | 8.7 | 0.02 | 0.37 | 0.16 | 89 | 1021.8 |
| 20260506220922 | 46 | 243 | 1.7 | 8.7 | 0.02 | 0.37 | 0.16 | 89 | 1021.8 |
| 20260506220913 | 46 | 235 | 1.7 | 12.2 | 0.02 | 0.37 | 0.16 | 89 | 1021.9 |
| 20260506220415 | 46 | 276 | 2.6 | 12.2 | 0.02 | 0.37 | 0.16 | 89 | 1021.8 |
| 20260506215413 | 46 | 268 | 2.6 | 8.7 | 0.02 | 0.37 | 0.16 | 89 | 1021.7 |
| 20260506214919 | 46 | 197 | 3.5 | 13.0 | 0.03 | 0.37 | 0.16 | 90 | 1021.8 |
| 20260506214913 | 46 | 220 | 2.6 | 13.0 | 0.03 | 0.37 | 0.16 | 89 | 1021.7 |
| 20260506214543 | 46 | 238 | 3.5 | 11.3 | 0.03 | 0.36 | 0.15 | 90 | 1021.8 |
| 20260506213419 | 46 | 268 | 2.6 | 13.0 | 0.03 | 0.36 | 0.15 | 89 | 1021.4 |
| 20260506213413 | 46 | 199 | 2.6 | 10.4 | 0.03 | 0.36 | 0.15 | 89 | 1021.7 |
| 20260506212413 | 46 | 241 | 1.7 | 13.0 | 0.03 | 0.36 | 0.15 | 89 | 1021.3 |
| 20260506211913 | 46 | 271 | 0.9 | 7.0 | 0.03 | 0.35 | 0.14 | 89 | 1021.2 |
| 20260506211413 | 46 | 229 | 0.9 | 5.2 | 0.04 | 0.35 | 0.14 | 89 | 1021.1 |
| 20260506210915 | 46 | 258 | 0.9 | 9.6 | 0.04 | 0.35 | 0.14 | 89 | 1021.0 |
| 20260506210415 | 46 | 220 | 1.7 | 9.6 | 0.05 | 0.35 | 0.14 | 89 | 1020.9 |
| 20260506205912 | 46 | 248 | 2.6 | 10.4 | 0.05 | 0.35 | 0.13 | 89 | 1021.0 |
| 20260506205421 | 46 | 260 | 2.6 | 8.7 | 0.05 | 0.34 | 0.13 | 89 | 1020.5 |
| 20260506205415 | 46 | 255 | 2.6 | 10.4 | 0.06 | 0.35 | 0.13 | 89 | 1020.8 |
| 20260506204413 | 46 | 229 | 2.6 | 9.6 | 0.05 | 0.34 | 0.13 | 88 | 1020.6 |
| 20260506203915 | 46 | 300 | 2.6 | 9.6 | 0.04 | 0.33 | 0.12 | 88 | 1020.4 |
| 20260506203415 | 46 | 293 | 1.7 | 9.6 | 0.04 | 0.33 | 0.12 | 88 | 1020.4 |
| 20260506202920 | 46 | 314 | 2.6 | 9.6 | 0.04 | 0.33 | 0.12 | 88 | 1020.2 |
| 20260506202914 | 46 | 283 | 1.7 | 7.0 | 0.04 | 0.33 | 0.12 | 88 | 1020.5 |
| 20260506201911 | 46 | 243 | 3.5 | 9.6 | 0.04 | 0.32 | 0.11 | 88 | 1020.6 |
| 20260506201410 | 46 | 227 | 3.5 | 11.3 | 0.03 | 0.31 | 0.10 | 88 | 1020.6 |
| 20260506200910 | 46 | 265 | 4.3 | 13.0 | 0.03 | 0.31 | 0.10 | 87 | 1020.8 |
| 20260506200409 | 46 | 230 | 4.3 | 13.0 | 0.02 | 0.31 | 0.09 | 87 | 1020.8 |
| 20260506195915 | 46 | 235 | 2.6 | 11.3 | 0.01 | 0.29 | 0.08 | 88 | 1020.0 |
| 20260506195909 | 46 | 247 | 3.5 | 12.2 | 0.02 | 0.30 | 0.09 | 88 | 1020.7 |
| 20260506194911 | 46 | 266 | 2.6 | 9.6 | 0.02 | 0.29 | 0.08 | 88 | 1020.0 |
| 20260506194409 | 46 | 291 | 2.6 | 12.2 | 0.02 | 0.29 | 0.08 | 88 | 1019.9 |
| 20260506193909 | 46 | 232 | 3.5 | 12.2 | 0.02 | 0.29 | 0.08 | 88 | 1019.8 |
| 20260506193410 | 45 | 339 | 3.5 | 13.0 | 0.02 | 0.29 | 0.08 | 88 | 1019.8 |
| 20260506192907 | 45 | 258 | 3.5 | 13.0 | 0.03 | 0.29 | 0.08 | 88 | 1019.8 |
| 20260506192407 | 45 | 278 | 2.6 | 9.6 | 0.04 | 0.29 | 0.08 | 88 | 1020.0 |
| 20260506191908 | 45 | 242 | 2.6 | 12.2 | 0.05 | 0.28 | 0.07 | 88 | 1020.0 |
| 20260506191406 | 45 | 279 | 1.7 | 12.2 | 0.06 | 0.28 | 0.07 | 88 | 1020.2 |
| 20260506190907 | 45 | 343 | 1.7 | 8.7 | 0.07 | 0.28 | 0.07 | 88 | 1020.1 |
| 20260506190406 | 46 | 262 | 0.9 | 7.0 | 0.07 | 0.28 | 0.07 | 88 | 1019.9 |
| 20260506185908 | 46 | 273 | 1.7 | 8.7 | 0.07 | 0.28 | 0.07 | 87 | 1020.1 |
| 20260506185409 | 46 | 273 | 2.6 | 9.6 | 0.07 | 0.28 | 0.07 | 87 | 1020.0 |
| 20260506184905 | 46 | 222 | 1.7 | 9.6 | 0.06 | 0.27 | 0.06 | 88 | 1020.1 |
| 20260506184404 | 46 | 208 | 1.7 | 9.6 | 0.06 | 0.27 | 0.06 | 87 | 1020.0 |
| 20260506183907 | 45 | 219 | 1.7 | 11.3 | 0.06 | 0.27 | 0.06 | 86 | 1019.9 |
| 20260506183410 | 46 | 241 | 5.2 | 17.4 | 0.05 | 0.26 | 0.06 | 84 | 1020.2 |
| 20260506183405 | 45 | 220 | 3.5 | 13.0 | 0.06 | 0.27 | 0.06 | 85 | 1020.2 |
| 20260506182407 | 46 | 206 | 4.3 | 17.4 | 0.04 | 0.25 | 0.05 | 84 | 1020.5 |
| 20260506181904 | 47 | 237 | 2.6 | 13.0 | 0.02 | 0.24 | 0.03 | 82 | 1020.2 |
| 20260506181406 | 47 | 175 | 1.7 | 7.8 | 0.01 | 0.22 | 0.01 | 81 | 1020.2 |
| 20260506180904 | 47 | 276 | 2.6 | 8.7 | 0.00 | 0.21 | 0.00 | 80 | 1020.0 |
| 20260506180404 | 47 | 260 | 3.5 | 11.3 | 0.00 | 0.21 | 0.00 | 79 | 1019.6 |
| 20260506175903 | 47 | 353 | 2.6 | 11.3 | 0.00 | 0.21 | 0.00 | 80 | 1019.5 |
| 20260506175402 | 47 | 340 | 1.7 | 9.6 | 0.00 | 0.21 | 0.00 | 80 | 1019.4 |
| 20260506174904 | 47 | 264 | 1.7 | 9.6 | 0.00 | 0.21 | 0.00 | 80 | 1019.2 |
| 20260506174403 | 47 | 247 | 1.7 | 7.8 | 0.00 | 0.21 | 0.00 | 81 | 1019.3 |
| 20260506173904 | 47 | 229 | 1.7 | 7.8 | 0.00 | 0.21 | 0.00 | 81 | 1019.2 |
| 20260506173402 | 47 | 261 | 1.7 | 8.7 | 0.00 | 0.21 | 0.00 | 80 | 1019.0 |
| 20260506172902 | 47 | 312 | 2.6 | 8.7 | 0.00 | 0.21 | 0.00 | 80 | 1019.3 |
| 20260506172404 | 47 | 307 | 2.6 | 7.8 | 0.00 | 0.21 | 0.00 | 79 | 1019.5 |
| 20260506171907 | 47 | 281 | 1.7 | 7.8 | 0.00 | 0.21 | 0.00 | 78 | 1019.8 |
| 20260506171901 | 47 | 265 | 1.7 | 6.1 | 0.00 | 0.21 | 0.00 | 79 | 1019.7 |
| 20260506170909 | 47 | 232 | 3.5 | 14.8 | 0.00 | 0.21 | 0.00 | 77 | 1019.9 |
| 20260506170901 | 47 | 250 | 2.6 | 14.8 | 0.00 | 0.21 | 0.00 | 78 | 1019.8 |
| 20260506165908 | 48 | 253 | 2.6 | 15.6 | 0.00 | 0.21 | 0.00 | 78 | 1019.9 |
| 20260506165859 | 47 | 96 | 2.6 | 12.2 | 0.00 | 0.21 | 0.00 | 77 | 1019.9 |
| 20260506165358 | 48 | 279 | 2.6 | 8.7 | 0.00 | 0.21 | 0.00 | 77 | 1019.9 |
| 20260506165036 | 48 | 262 | 1.7 | 7.0 | 0.00 | 0.21 | 0.00 | 77 | 1019.8 |
| 20260506165030 | 48 | 276 | 2.6 | 15.6 | 0.00 | 0.21 | 0.00 | 77 | 1019.8 |
| 20260506164026 | 48 | 240 | 2.6 | 6.1 | 0.00 | 0.21 | 0.00 | 76 | 1019.6 |
| 20260506162858 | 48 | 256 | 2.6 | 9.6 | 0.00 | 0.21 | 0.00 | 75 | 1019.6 |
| 20260506162357 | 49 | 293 | 2.6 | 10.4 | 0.00 | 0.21 | 0.00 | 75 | 1019.5 |
| 20260506161903 | 49 | 248 | 2.6 | 7.8 | 0.00 | 0.21 | 0.00 | 76 | 1019.3 |
| 20260506161857 | 49 | 280 | 1.7 | 10.4 | 0.00 | 0.21 | 0.00 | 75 | 1019.3 |
| 20260506161524 | 49 | 303 | 2.6 | 10.4 | 0.00 | 0.21 | 0.00 | 75 | 1019.3 |
| 20260506161025 | 49 | 249 | 2.6 | 11.3 | 0.00 | 0.21 | 0.00 | 76 | 1019.2 |
| 20260506160357 | 49 | 299 | 3.5 | 10.4 | 0.00 | 0.21 | 0.00 | 76 | 1019.2 |
| 20260506155356 | 49 | 231 | 2.6 | 11.3 | 0.00 | 0.21 | 0.00 | 76 | 1019.3 |
| 20260506154857 | 49 | 215 | 2.6 | 11.3 | 0.00 | 0.21 | 0.00 | 76 | 1019.4 |
| 20260506154354 | 49 | 207 | 2.6 | 11.3 | 0.00 | 0.21 | 0.00 | 77 | 1019.5 |
| 20260506153856 | 48 | 185 | 2.6 | 9.6 | 0.00 | 0.21 | 0.00 | 76 | 1019.6 |
| 20260506153402 | 49 | 226 | 2.6 | 7.8 | 0.00 | 0.21 | 0.00 | 76 | 1019.6 |
| 20260506153356 | 49 | 250 | 2.6 | 9.6 | 0.00 | 0.21 | 0.00 | 77 | 1019.6 |
| 20260506152354 | 49 | 298 | 1.7 | 7.8 | 0.00 | 0.21 | 0.00 | 76 | 1019.6 |
| 20260506151902 | 49 | 254 | 2.6 | 12.2 | 0.00 | 0.21 | 0.00 | 77 | 1019.6 |
| 20260506151856 | 49 | 250 | 2.6 | 12.2 | 0.00 | 0.21 | 0.00 | 77 | 1019.6 |
| 20260506150854 | 49 | 278 | 2.6 | 9.6 | 0.00 | 0.21 | 0.00 | 77 | 1019.6 |
| 20260506150401 | 49 | 233 | 1.7 | 9.6 | 0.00 | 0.21 | 0.00 | 77 | 1019.6 |
| 20260506150356 | 49 | 269 | 2.6 | 9.6 | 0.00 | 0.21 | 0.00 | 77 | 1019.6 |
| 20260506145356 | 49 | 229 | 1.7 | 7.0 | 0.00 | 0.21 | 0.00 | 76 | 1019.5 |
| 20260506144854 | 49 | 235 | 1.7 | 8.7 | 0.00 | 0.21 | 0.00 | 75 | 1019.5 |
| 20260506144356 | 49 | 190 | 1.7 | 8.7 | 0.00 | 0.21 | 0.00 | 74 | 1019.5 |
| 20260506143858 | 49 | 247 | 1.7 | 9.6 | 0.00 | 0.21 | 0.00 | 74 | 1019.5 |
| 20260506143354 | 49 | 238 | 1.7 | 9.6 | 0.00 | 0.21 | 0.00 | 74 | 1019.4 |
| 20260506142854 | 49 | 245 | 1.7 | 9.6 | 0.00 | 0.21 | 0.00 | 74 | 1019.4 |
| 20260506142354 | 50 | 243 | 1.7 | 9.6 | 0.00 | 0.21 | 0.00 | 74 | 1019.5 |
| 20260506141855 | 50 | 260 | 1.7 | 7.0 | 0.00 | 0.21 | 0.00 | 74 | 1019.4 |
| 20260506141355 | 50 | 268 | 2.6 | 7.0 | 0.00 | 0.21 | 0.00 | 73 | 1019.4 |
| 20260506140856 | 50 | 338 | 2.6 | 8.7 | 0.00 | 0.21 | 0.00 | 74 | 1019.4 |
| 20260506140356 | 50 | 244 | 2.6 | 9.6 | 0.00 | 0.21 | 0.00 | 74 | 1019.5 |
| 20260506135854 | 50 | 229 | 3.5 | 9.6 | 0.00 | 0.21 | 0.21 | 74 | 1019.4 |
| 20260506135400 | 50 | 244 | 3.5 | 10.4 | 0.00 | 0.21 | 0.21 | 74 | 1019.2 |
| 20260506135354 | 50 | 218 | 3.5 | 10.4 | 0.00 | 0.21 | 0.21 | 73 | 1019.4 |
| 20260506134358 | 50 | 231 | 2.6 | 9.6 | 0.00 | 0.21 | 0.21 | 75 | 1019.2 |
| 20260506134352 | 50 | 256 | 3.5 | 10.4 | 0.00 | 0.21 | 0.21 | 74 | 1019.3 |
| 20260506133352 | 50 | 190 | 2.6 | 10.4 | 0.00 | 0.21 | 0.21 | 75 | 1019.0 |
| 20260506132853 | 51 | 283 | 3.5 | 10.4 | 0.00 | 0.21 | 0.21 | 76 | 1019.1 |
| 20260506132351 | 50 | 195 | 2.6 | 9.6 | 0.00 | 0.21 | 0.21 | 76 | 1019.1 |
| 20260506131852 | 50 | 247 | 2.6 | 8.7 | 0.00 | 0.21 | 0.21 | 76 | 1019.2 |
| 20260506131352 | 51 | 246 | 2.6 | 8.7 | 0.00 | 0.21 | 0.21 | 75 | 1019.3 |
| 20260506130853 | 51 | 245 | 3.5 | 10.4 | 0.00 | 0.21 | 0.21 | 74 | 1019.1 |
| 20260506130352 | 51 | 289 | 2.6 | 10.4 | 0.00 | 0.21 | 0.21 | 74 | 1019.1 |
| 20260506125853 | 51 | 212 | 2.6 | 13.9 | 0.00 | 0.21 | 0.21 | 73 | 1019.1 |
| 20260506125349 | 51 | 249 | 2.6 | 16.5 | 0.00 | 0.21 | 0.21 | 74 | 1019.1 |
| 20260506124849 | 51 | 67 | 2.6 | 16.5 | 0.00 | 0.21 | 0.21 | 74 | 1019.0 |
| 20260506124355 | 52 | 267 | 3.5 | 14.8 | 0.00 | 0.21 | 0.21 | 76 | 1019.1 |
| 20260506124349 | 52 | 180 | 3.5 | 13.0 | 0.00 | 0.21 | 0.21 | 75 | 1019.0 |
| 20260506123350 | 52 | 207 | 3.5 | 14.8 | 0.00 | 0.21 | 0.21 | 77 | 1019.0 |
| 20260506122853 | 52 | 202 | 2.6 | 13.9 | 0.00 | 0.21 | 0.21 | 80 | 1018.9 |
| 20260506122848 | 52 | 239 | 3.5 | 13.9 | 0.00 | 0.21 | 0.21 | 79 | 1019.1 |
| 20260506121850 | 52 | 239 | 2.6 | 11.3 | 0.00 | 0.21 | 0.21 | 81 | 1018.8 |
| 20260506121347 | 52 | 247 | 2.6 | 9.6 | 0.00 | 0.21 | 0.21 | 82 | 1018.8 |
| 20260506120848 | 52 | 254 | 1.7 | 10.4 | 0.00 | 0.21 | 0.21 | 82 | 1018.8 |
| 20260506120350 | 52 | 267 | 1.7 | 10.4 | 0.00 | 0.21 | 0.21 | 83 | 1018.8 |
| 20260506115848 | 52 | 256 | 1.7 | 10.4 | 0.00 | 0.21 | 0.21 | 83 | 1018.8 |
| 20260506115349 | 52 | 214 | 1.7 | 10.4 | 0.01 | 0.21 | 0.21 | 84 | 1018.8 |
| 20260506114849 | 52 | 197 | 1.7 | 9.6 | 0.01 | 0.21 | 0.21 | 84 | 1018.8 |
| 20260506114347 | 52 | 204 | 1.7 | 9.6 | 0.01 | 0.21 | 0.21 | 85 | 1018.7 |
| 20260506113849 | 52 | 256 | 1.7 | 7.8 | 0.01 | 0.21 | 0.21 | 85 | 1018.6 |
| 20260506113349 | 52 | 244 | 1.7 | 9.6 | 0.01 | 0.21 | 0.21 | 85 | 1018.5 |
| 20260506112848 | 52 | 266 | 1.7 | 9.6 | 0.01 | 0.21 | 0.21 | 85 | 1018.5 |
| 20260506112349 | 52 | 249 | 1.7 | 13.0 | 0.01 | 0.21 | 0.21 | 85 | 1018.4 |
| 20260506111846 | 52 | 281 | 2.6 | 13.0 | 0.01 | 0.21 | 0.21 | 86 | 1018.3 |
| 20260506111345 | 52 | 314 | 2.6 | 12.2 | 0.01 | 0.21 | 0.21 | 86 | 1018.3 |
| 20260506110845 | 52 | 251 | 2.6 | 13.0 | 0.01 | 0.21 | 0.21 | 87 | 1018.2 |
| 20260506110347 | 52 | 211 | 2.6 | 14.8 | 0.01 | 0.21 | 0.21 | 87 | 1018.3 |
| 20260506105847 | 52 | 247 | 2.6 | 14.8 | 0.01 | 0.21 | 0.21 | 87 | 1018.2 |
| 20260506105345 | 52 | 247 | 3.5 | 12.2 | 0.00 | 0.20 | 0.20 | 88 | 1018.2 |
| 20260506104845 | 52 | 208 | 3.5 | 10.4 | 0.01 | 0.20 | 0.20 | 88 | 1018.1 |
| 20260506104346 | 53 | 247 | 2.6 | 9.6 | 0.02 | 0.20 | 0.20 | 89 | 1018.0 |
| 20260506103845 | 53 | 248 | 2.6 | 9.6 | 0.02 | 0.20 | 0.20 | 89 | 1018.0 |
| 20260506103347 | 53 | 220 | 3.5 | 15.6 | 0.02 | 0.20 | 0.20 | 89 | 1018.0 |
| 20260506102847 | 53 | 263 | 3.5 | 15.6 | 0.02 | 0.20 | 0.20 | 89 | 1017.8 |
| 20260506102347 | 54 | 242 | 2.6 | 12.2 | 0.02 | 0.20 | 0.20 | 89 | 1017.7 |
| 20260506101845 | 54 | 226 | 2.6 | 10.4 | 0.02 | 0.20 | 0.20 | 90 | 1017.6 |
| 20260506101351 | 54 | 271 | 2.6 | 13.0 | 0.03 | 0.20 | 0.20 | 89 | 1017.5 |
| 20260506101347 | 54 | 244 | 2.6 | 13.0 | 0.03 | 0.20 | 0.20 | 90 | 1017.5 |
| 20260506100347 | 54 | 240 | 2.6 | 10.4 | 0.03 | 0.20 | 0.20 | 89 | 1017.3 |
| 20260506095845 | 54 | 231 | 2.6 | 8.7 | 0.03 | 0.20 | 0.20 | 89 | 1017.2 |
| 20260506095345 | 55 | 164 | 1.7 | 8.7 | 0.03 | 0.20 | 0.20 | 89 | 1017.1 |
| 20260506094847 | 55 | 263 | 1.7 | 9.6 | 0.02 | 0.20 | 0.20 | 88 | 1017.0 |
| 20260506094346 | 55 | 230 | 2.6 | 18.2 | 0.02 | 0.19 | 0.20 | 88 | 1017.1 |
| 20260506093845 | 56 | 278 | 2.6 | 18.2 | 0.02 | 0.19 | 0.19 | 88 | 1017.1 |
| 20260506093347 | 56 | 226 | 2.6 | 9.6 | 0.01 | 0.18 | 0.18 | 87 | 1017.0 |
| 20260506092846 | 56 | 255 | 3.5 | 11.3 | 0.01 | 0.18 | 0.18 | 88 | 1016.6 |
| 20260506092347 | 57 | 246 | 3.5 | 21.7 | 0.01 | 0.18 | 0.18 | 87 | 1016.3 |
| 20260506091845 | 58 | 263 | 2.6 | 21.7 | 0.01 | 0.18 | 0.18 | 87 | 1016.2 |
| 20260506091345 | 58 | 289 | 3.5 | 11.3 | 0.01 | 0.17 | 0.17 | 88 | 1016.1 |
| 20260506090846 | 58 | 303 | 5.2 | 11.3 | 0.02 | 0.17 | 0.17 | 88 | 1015.9 |
| 20260506090842 | 58 | 352 | 4.3 | 8.7 | 0.06 | 0.17 | 0.17 | 88 | 1015.8 |
| 20260506085839 | 58 | 319 | 4.3 | 10.4 | 0.11 | 0.17 | 0.17 | 88 | 1015.8 |
| 20260506085339 | 58 | 336 | 2.6 | 10.4 | 0.17 | 0.17 | 0.17 | 88 | 1015.7 |
| 20260506084845 | 58 | 336 | 3.5 | 7.8 | 0.17 | 0.17 | 0.17 | 88 | 1015.7 |
| 20260506084841 | 58 | 330 | 2.6 | 7.8 | 0.17 | 0.17 | 0.17 | 88 | 1015.7 |
| 20260506083840 | 58 | 306 | 3.5 | 7.8 | 0.17 | 0.17 | 0.17 | 87 | 1015.7 |
| 20260506083338 | 58 | 323 | 2.6 | 7.8 | 0.17 | 0.17 | 0.17 | 87 | 1015.8 |
| 20260506082844 | 58 | 323 | 4.3 | 10.4 | 0.17 | 0.17 | 0.17 | 86 | 1015.9 |
| 20260506082839 | 58 | 312 | 3.5 | 7.8 | 0.17 | 0.17 | 0.17 | 87 | 1015.9 |
| 20260506081838 | 58 | 336 | 4.3 | 10.4 | 0.17 | 0.17 | 0.17 | 85 | 1016.0 |
| 20260506081343 | 59 | 290 | 4.3 | 13.0 | 0.15 | 0.15 | 0.16 | 81 | 1016.0 |
| 20260506081337 | 59 | 304 | 5.2 | 10.4 | 0.17 | 0.17 | 0.17 | 84 | 1016.0 |
| 20260506080340 | 62 | 278 | 2.6 | 9.6 | 0.06 | 0.06 | 0.06 | 75 | 1015.9 |
| 20260506080335 | 60 | 293 | 1.7 | 13.0 | 0.11 | 0.11 | 0.11 | 77 | 1016.2 |
| 20260506073327 | 62 | 307 | 4.3 | 9.6 | 0.00 | 0.00 | 0.00 | 69 | 1015.0 |
| 20260506072828 | 62 | 337 | 3.5 | 13.0 | 0.00 | 0.00 | 0.00 | 67 | 1015.1 |
| 20260506072332 | 63 | 330 | 4.3 | 10.4 | 0.00 | 0.00 | 0.00 | 64 | 1015.0 |
| 20260506072326 | 63 | 285 | 2.6 | 13.0 | 0.00 | 0.00 | 0.00 | 64 | 1015.1 |
| 20260506071956 | 63 | 335 | 4.3 | 10.4 | 0.00 | 0.00 | 0.00 | 63 | 1014.9 |
| 20260506070824 | 63 | 9 | 4.3 | 13.0 | 0.00 | 0.00 | 0.00 | 62 | 1014.9 |
| 20260506070326 | 63 | 359 | 4.3 | 13.0 | 0.00 | 0.00 | 0.00 | 61 | 1014.9 |
| 20260506062325 | 64 | 318 | 6.1 | 14.8 | 0.00 | 0.00 | 0.00 | 59 | 1015.4 |
| 20260506061823 | 64 | 352 | 6.1 | 14.8 | 0.00 | 0.00 | 0.00 | 59 | 1015.4 |
| 20260506061332 | 64 | 331 | 6.1 | 13.9 | 0.00 | 0.00 | 0.00 | 58 | 1015.4 |
| 20260506061324 | 64 | 342 | 5.2 | 13.0 | 0.00 | 0.00 | 0.00 | 59 | 1015.4 |
| 20260506060330 | 65 | 355 | 5.2 | 14.8 | 0.00 | 0.00 | 0.00 | 57 | 1015.5 |
| 20260506060324 | 65 | 324 | 5.2 | 13.9 | 0.00 | 0.00 | 0.00 | 57 | 1015.3 |
| 20260506051323 | 65 | 338 | 4.3 | 10.4 | 0.00 | 0.00 | 0.00 | 56 | 1016.0 |
| 20260506050825 | 66 | 331 | 4.3 | 8.7 | 0.00 | 0.00 | 0.00 | 54 | 1016.1 |
| 20260506050821 | 65 | 324 | 4.3 | 8.7 | 0.00 | 0.00 | 0.00 | 55 | 1016.1 |
| 20260506044823 | 66 | 346 | 4.3 | 11.3 | 0.00 | 0.00 | 0.00 | 54 | 1016.5 |
| 20260506044328 | 66 | 314 | 5.2 | 13.9 | 0.00 | 0.00 | 0.00 | 54 | 1016.7 |
| 20260506044322 | 66 | 308 | 5.2 | 12.2 | 0.00 | 0.00 | 0.00 | 54 | 1016.6 |
| 20260506043821 | 66 | 290 | 6.1 | 12.2 | 0.00 | 0.00 | 0.00 | 54 | 1016.6 |
| 20260506042820 | 65 | 3 | 4.3 | 13.9 | 0.00 | 0.00 | 0.00 | 54 | 1016.7 |
| 20260506042318 | 65 | 347 | 4.3 | 13.9 | 0.00 | 0.00 | 0.00 | 55 | 1016.8 |
| 20260506041819 | 65 | 337 | 5.2 | 13.9 | 0.00 | 0.00 | 0.00 | 54 | 1016.9 |
| 20260506041318 | 65 | 301 | 4.3 | 12.2 | 0.00 | 0.00 | 0.00 | 54 | 1016.9 |
| 20260506040824 | 65 | 312 | 4.3 | 11.3 | 0.00 | 0.00 | 0.00 | 55 | 1017.1 |
| 20260506040818 | 65 | 333 | 4.3 | 12.2 | 0.00 | 0.00 | 0.00 | 54 | 1016.8 |
| 20260506040318 | 65 | 329 | 3.5 | 11.3 | 0.00 | 0.00 | 0.00 | 55 | 1017.0 |
| 20260506035316 | 65 | 285 | 3.5 | 11.3 | 0.00 | 0.00 | 0.00 | 55 | 1017.2 |
| 20260506034818 | 65 | 317 | 4.3 | 15.6 | 0.00 | 0.00 | 0.00 | 56 | 1017.4 |
| 20260506034318 | 65 | 314 | 5.2 | 15.6 | 0.00 | 0.00 | 0.00 | 55 | 1017.4 |
| 20260506033822 | 64 | 324 | 5.2 | 14.8 | 0.00 | 0.00 | 0.00 | 56 | 1017.5 |
| 20260506033817 | 65 | 320 | 4.3 | 13.0 | 0.00 | 0.00 | 0.00 | 54 | 1017.6 |
| 20260506033316 | 65 | 304 | 5.2 | 14.8 | 0.00 | 0.00 | 0.00 | 56 | 1017.6 |
| 20260506032325 | 64 | 285 | 3.5 | 12.2 | 0.00 | 0.00 | 0.00 | 57 | 1017.7 |
| 20260506032319 | 64 | 292 | 5.2 | 12.2 | 0.00 | 0.00 | 0.00 | 57 | 1017.6 |
| 20260506031319 | 64 | 333 | 3.5 | 9.6 | 0.00 | 0.00 | 0.00 | 57 | 1017.8 |
| 20260506030818 | 64 | 359 | 3.5 | 7.8 | 0.00 | 0.00 | 0.00 | 57 | 1017.9 |
| 20260506030322 | 64 | 327 | 2.6 | 8.7 | 0.00 | 0.00 | 0.00 | 58 | 1018.1 |
| 20260506030316 | 64 | 296 | 3.5 | 8.7 | 0.00 | 0.00 | 0.00 | 58 | 1018.0 |
| 20260506025316 | 63 | 334 | 2.6 | 6.1 | 0.00 | 0.00 | 0.00 | 58 | 1018.2 |
| 20260506024825 | 63 | 0 | 4.3 | 9.6 | 0.00 | 0.00 | 0.00 | 57 | 1018.4 |
| 20260506024819 | 63 | 335 | 3.5 | 9.6 | 0.00 | 0.00 | 0.00 | 58 | 1018.3 |
| 20260506023822 | 64 | 4 | 2.6 | 9.6 | 0.00 | 0.00 | 0.00 | 57 | 1018.6 |
| 20260506023816 | 64 | 349 | 3.5 | 9.6 | 0.00 | 0.00 | 0.00 | 57 | 1018.6 |